Regional Weather Roundup
Issued by NWS

Home | Current Version | Previous Version | Graphics & Text | Print | Product List | Glossary Off
Versions: 1 2 3 4 5 6 7 8 9 10 11 12 13 14 15 16 17 18 19 20 21 22 23 24 25 26 27 28 29 30 31 32 33 34 35 36 37 38 39 40 41 42 43 44 45 46 47 48 49 50

000
ASUS43 KMPX 220010
RWRMN
WEATHER ROUNDUP FOR MINNESOTA
NATIONAL WEATHER SERVICE TWIN CITIES/CHANHASSEN MN
700 PM CDT THU MAY 21 2015


NOTE: "FAIR" INDICATES FEW OR NO CLOUDS BELOW 12,000 FEET WITH NO
SIGNIFICANT WEATHER AND/OR OBSTRUCTIONS TO VISIBILITY. N/A MEANS
CURRENT SKY AND/OR WEATHER CONDITIONS ARE NOT AVAILABLE.

MNZ060>063-068>070-220100-
   Twin Cities Metro

CITY           SKY/WX    TMP DP  RH WIND       PRES   REMARKS
TWIN CITIES    SUNNY     71  29  21 NW16      30.02S
6HR MIN TEMP:  70; 6HR MAX TEMP:  74;

ST PAUL        SUNNY     70  32  24 N13       30.02S
CRYSTAL        SUNNY     71  29  21 NW15      30.01F
BLAINE         SUNNY     72  36  26 NW13      30.02S
LAKEVILLE      SUNNY     68  32  26 N12       30.02S
EDEN PRAIRIE   SUNNY     70  32  24 N12       30.01F
6HR MIN TEMP:  68; 6HR MAX TEMP:  73;

SOUTH ST PAUL  SUNNY     71  33  24 NW12      30.01S
LAKE ELMO      FAIR      68  32  26 NW14G20   30.03R
$$
MNZ001>005-007-008-013>017-022>024-027-028-220100-
   Northwest Minnesota

CITY           SKY/WX    TMP DP  RH WIND       PRES   REMARKS
BEMIDJI        SUNNY     64  32  29 N7        30.07F
HALLOCK        SUNNY     66  27  22 N9        30.10F
ROSEAU         SUNNY     66  34  30 NW9       30.08F
WARROAD        SUNNY     61  39  44 E6        30.09F
THIEF RVR FALL SUNNY     64  32  29 NW9       30.10F
CROOKSTON      SUNNY     66  36  32 N8        30.10F
FOSSTON        SUNNY     66  30  26 NW9       30.09F
DETROIT LAKES  SUNNY     66  32  28 N9G16     30.09F
MOORHEAD       SUNNY     66  37  34 N9        30.10F
PARK RAPIDS    SUNNY     68  30  24 NW10      30.06F
MAHNOMEN       FAIR      66  33  29 N9        30.09S
$$
MNZ006-009>011-018-025>026-220100-
   North Central Minnesota

CITY           SKY/WX    TMP DP  RH WIND       PRES   REMARKS
BAUDETTE       SUNNY     62  30  29 N9        30.08F
FLAG ISLAND    SUNNY     61  36  39 N7        30.07F
INTL FALLS     MOSUNNY   61  29  29 NW12      30.06F
6HR MIN TEMP:  59; 6HR MAX TEMP:  64;

WASKISH        SUNNY     63  36  36 CALM      30.08F
BIG FORK       SUNNY     63  27  25 N7        30.07S
LONGVILLE      SUNNY     64  28  25 NW9       30.07F
GRAND RAPIDS   SUNNY     64  32  29 NW14      30.05F
CRANE LAKE     SUNNY     61  23  23 N6        30.07S
COOK           SUNNY     61  27  27 NW7       30.05F
WALKER         FAIR      64  31  29 N8        30.07F
$$
MNZ012-019>021-037-220100-
   Northeast Minnesota

CITY           SKY/WX    TMP DP  RH WIND       PRES   REMARKS
DULUTH         SUNNY     65  25  22 N12G20    30.02R
6HR MIN TEMP:  59; 6HR MAX TEMP:  68;

ELY            SUNNY     61  25  25 NW9G16    30.03S
HIBBING        SUNNY     64  27  24 NW12G23   30.04S
EVELETH        SUNNY     63  27  25 NW9G17    30.05S
DULUTH HARBOR  SUNNY     59  39  47 N8        30.01S
TWO HARBORS    SUNNY     68  36  30 NW9       29.99S
SILVER BAY     SUNNY     64  27  24 NW8       29.99S
GRAND MARAIS     N/A     43  34  70 VRB3      30.00S
G MARAIS ARPRT SUNNY     55  18  22 NW14G26   30.02R
$$
MNZ029>031-032-039>041-046>048-054>057-064-220100-
   West Central Minnesota

CITY           SKY/WX    TMP DP  RH WIND       PRES   REMARKS
FERGUS FALLS   SUNNY     68  34  28 N9G16     30.09S
WHEATON        SUNNY     66  34  30 N14       30.11S
MORRIS         SUNNY     70  34  26 NW14      30.07F
ALEXANDRIA     SUNNY     67  30  25 N10       30.09S
ELBOW LAKE     FAIR      66  35  31 N10       30.08F
WADENA         SUNNY     66  36  32 NW9       30.07S
GLENWOOD       SUNNY     66  32  28 N14G20    30.08F
APPLETON       SUNNY     72  28  20 N14       30.08S
BENSON         SUNNY     70  27  19 N9        30.08S
ORTONVILLE     SUNNY     70  27  19 N13       30.08F
MADISON        SUNNY     70  27  19 N14       30.08F
WILLMAR        FAIR      70  34  26 N14G20    30.08S
$$
MNZ033>034-036-042>043-049>051-058-059-220100-
   Central Minnesota

CITY           SKY/WX    TMP DP  RH WIND       PRES   REMARKS
ST CLOUD       SUNNY     69  33  26 N9        30.03F
6HR MIN TEMP:  68; 6HR MAX TEMP:  71;

SAUK CENTRE    FAIR      67  33  28 NW10      30.06F
PAYNESVILLE    SUNNY     65  33  30 W10       30.06S
AITKIN         SUNNY     66  27  22 NW10      30.03F
PINE RIVER     SUNNY     64  36  34 N10       30.09F
BRAINERD       SUNNY     65  30  27 N10       30.06S
STAPLES        SUNNY     66  30  26 N9        30.05F
LONG PRAIRIE   FAIR      66  32  28 NW12      30.06F
LITTLE FALLS   SUNNY     68  28  22 N5        30.05S
LITCHFIELD     SUNNY     70  34  26 NW9       30.05F
BUFFALO        SUNNY     70  31  23 N8        30.04S
MAPLE LAKE     SUNNY     70  35  28 NW6       30.04F
$$
MNZ037-044-045-052-053-220100-
   East Central Minnesota

CITY           SKY/WX    TMP DP  RH WIND       PRES   REMARKS
PRINCETON      SUNNY     70  34  26 NW8       30.04S
MORA           SUNNY     64  32  29 NW10G16   30.05S
CAMBRIDGE      SUNNY     70  45  40 NW8       30.01F
RUSH CITY      SUNNY     67  33  28 NW7       30.02F
MOOSE LAKE     SUNNY     66  32  28 NW9G17    30.01S
HINCKLEY       FAIR      68  34  28 N10G16    30.01F
CLOQUET        SUNNY     66  21  18 NW10G18   30.02S
MCGREGOR       SUNNY     66  32  28 NW8G18    30.04S
$$
MNZ071>073-080-081-089-090-097-098-220100-
   Southwest Minnesota

CITY           SKY/WX    TMP DP  RH WIND       PRES   REMARKS
MONTEVIDEO     SUNNY     70  30  23 N14       30.08F
GRANITE FALLS  SUNNY     70  33  25 NW12      30.09S
CANBY          SUNNY     70  29  21 N12       30.09F
MARSHALL       SUNNY     72  23  16 N16G23    30.08S
REDWOOD FALLS  SUNNY     71  32  23 NW12G21   30.06S
OLIVIA         SUNNY     68  32  26 NW14G20   30.06S
PIPESTONE      MOSUNNY   72  30  21 NW15G22   30.10S
WINDOM         SUNNY     70  18  13 NW17G26   30.08S
WORTHINGTON    SUNNY     70  32  24 N21       30.09S
JACKSON        SUNNY     72  10   9 N15G22    30.08S
TRACY          SUNNY     72  25  17 N16       30.09S
SLAYTON        SUNNY     69  29  22 N16G22    30.10S
$$
MNZ065>067-074>077-082>085-091>093-220100-
   South Central Minnesota

CITY           SKY/WX    TMP DP  RH WIND       PRES   REMARKS
MANKATO        SUNNY     72  30  21 NW17      30.04S
NEW ULM        SUNNY     72  28  20 N10G16    30.05R
ST JAMES       SUNNY     73  21  14 NW15      30.06
FAIRMONT       SUNNY     72  25  17 NW17      30.06S
GLENCOE        SUNNY     71  36  28 NW14      30.03F
FARIBAULT      SUNNY     72  34  25 NW12G20   30.03S
OWATONNA       SUNNY     70  30  23 NW16G22   30.03S
WASECA         SUNNY     72  32  23 NW16      30.05S
ALBERT LEA     SUNNY     72  28  20 NW10      30.03S
$$
MNZ078>079-086>088-094>096-220100-
   Southeast Minnesota

CITY           SKY/WX    TMP DP  RH WIND       PRES   REMARKS
ROCHESTER      SUNNY     69  37  30 NW18      30.02S
6HR MIN TEMP:  69; 6HR MAX TEMP:  73;

RED WING       SUNNY     72  21  15 N9G17     29.99S
STANTON        SUNNY     70  28  20 N12       30.00S
DODGE CENTER   SUNNY     70  34  26 NW14G20   30.02S
WINONA         SUNNY     70  36  28 NW9       29.98S
AUSTIN         SUNNY     68  34  28 NW15G23   30.02S
PRESTON        SUNNY     68  30  24 N13       30.01S
$$
ABBREVIATIONS USED IN REMARKS
   TC - TEMPERATURES IN CELSIUS
  WCI - WIND CHILL INDEX
   HX - HEAT INDEX
  VSB - VISIBILITY
$$


USA.gov is the U.S. government's official web portal to all federal, state and local government web resources and services.